[[{"header":{"parameterUnit":"m.s-1","parameterCategory":1,"la1":30.2991,"la2":30.254,"lo1":-89.0895,"lo2":-89.0444,"dy":0.0017,"dx":0.0017,"nx":28,"ny":28,"refTime":"2025-08-01T21:00:00:Z","depth":0,"parameterNumber":2,"parameterNumberName":"U-component_of_WINDS"},"data":[0,0,0,0,0,0,0,0,0,0,0,0,0,0,0,0,0,0,0,0,0,0,0,0,0,0,0,0,0,0,0,0,0,0,0,0,0,0,0,0,0,0,0,0,0,0,0,0,0,0,0,0,0,0,0,0,0,0,1.1563,1.1564,0,1.165,1.1651,1.1652,1.168,1.168,1.1679,1.1679,1.1773,1.1776,1.1779,0,0,0,0,0,0,0,0,0,0,0,0,0,1.1425,1.1428,1.1563,1.1564,1.1565,1.165,1.1651,1.1652,1.168,1.168,1.1679,1.1679,1.1772,1.1776,1.1779,0,0,0,0,0,0,0,0,0,0,0,0,0,1.1496,1.1429,1.1563,1.1589,1.1592,1.165,1.1651,1.1653,1.168,1.168,1.1679,1.1678,1.1771,1.1775,1.178,1.1819,0,0,1.1793,1.1795,0,0,0,0,0,0,0,0,1.1492,1.1501,1.1584,1.1588,1.1591,1.1653,1.1637,1.1709,1.168,1.1647,1.1679,1.1678,1.1734,1.1742,1.176,1.1823,1.1828,1.1793,1.1796,1.1798,1.1799,0,0,0,0,0,0,0,1.1487,1.1498,1.1598,1.1586,1.159,1.1598,1.1607,1.1651,1.1693,1.165,1.1652,1.1662,1.1736,1.1755,1.1762,1.1829,1.1793,1.1797,1.18,1.1802,1.1928,1.1929,0,0,0,0,0,0,1.1477,1.1493,1.1595,1.16,1.1539,1.1601,1.1611,1.1634,1.1693,1.1701,1.1662,1.1663,1.1748,1.1757,1.1765,1.1814,1.1798,1.1802,1.1805,1.1928,1.1929,1.1929,0,0,0,0,0,0,1.1474,1.1486,1.1592,1.1548,1.1562,1.1604,1.1629,1.1636,1.1655,1.1702,1.171,1.1674,1.1748,1.1759,1.1805,1.1818,1.1804,1.1808,1.1927,1.1928,1.1929,1.1913,0,0,0,0,0,0,1.147,1.1485,1.1499,1.1548,1.1564,1.1628,1.163,1.1638,1.1662,1.1664,1.1715,1.1723,1.1748,1.1798,1.1809,1.1824,1.1811,1.1926,1.1927,1.1929,1.1912,1.1913,1.1914,0,0,0,0,0,1.1465,1.1493,1.15,1.1512,1.1582,1.1629,1.1638,1.1665,1.1663,1.1678,1.1708,1.1721,1.1815,1.1803,1.1815,1.1831,1.1925,1.1927,1.1929,1.1912,1.1913,1.1914,0,0,0,0,0,0,1.1447,1.1499,1.1508,1.1552,1.1585,1.1633,1.1654,1.1666,1.1702,1.1703,1.1736,1.1748,1.1791,1.1816,1.1801,1.1872,1.1871,1.1875,1.1854,1.1855,1.1856,1.1849,1.1815,0,0,0,0,0,1.1447,1.1479,1.1524,1.1559,1.1575,1.1611,1.1632,1.165,1.1687,1.1702,1.1735,1.1772,1.181,1.1834,1.1871,1.1916,1.1928,1.1933,1.1934,1.1935,1.1938,1.1963,1.1965,1.1935,1.1935,1.1935,0,0,1.145,1.1483,1.1501,1.1556,1.1584,1.1617,1.1623,1.1658,1.1684,1.1708,1.1752,1.1778,1.1821,1.1866,1.1888,1.1889,1.1949,1.1937,1.1937,1.194,1.1965,1.1967,1.197,1.1936,1.1936,1.1936,0,0,1.1471,1.1499,1.153,1.1557,1.1599,1.1623,1.163,1.1676,1.1693,1.1738,1.1757,1.1788,1.1852,1.1882,1.1905,1.1936,1.1949,1.1948,1.1952,1.1975,1.1978,1.198,1.199,1.1994,1.1951,1.1951,1.1951,0,1.1469,1.1519,1.1545,1.1578,1.1602,1.1623,1.1655,1.1681,1.1734,1.175,1.175,1.1829,1.186,1.1912,1.1919,1.1938,1.1948,1.1942,1.1975,1.1978,1.198,1.199,1.1994,1.195,1.195,1.195,1.195,0,1.1514,1.1548,1.1568,1.1615,1.1641,1.1674,1.1706,1.173,1.1745,1.1769,1.1814,1.1851,1.1896,1.191,1.1926,1.1963,1.1962,1.1968,1.1968,1.1982,1.1992,1.1996,1.1949,1.195,1.195,1.195,0,0,1.1527,1.1587,1.1594,1.1615,1.1662,1.1689,1.1723,1.1765,1.1784,1.1819,1.1849,1.1901,1.1906,1.1933,1.1953,1.1974,1.1995,1.1977,1.1979,1.1978,1.2038,1.2032,1.2036,1.2004,1.2005,1.2005,1.2034,0,1.1553,1.1612,1.1636,1.1685,1.1716,1.1737,1.1766,1.1799,1.1822,1.1853,1.188,1.1916,1.1921,1.1936,1.1958,1.1987,1.2007,1.1986,1.2032,1.2033,1.202,1.2042,1.2037,1.2062,1.2038,1.2039,1.2039,0,1.1592,1.1625,1.1676,1.1718,1.1732,1.1758,1.1797,1.1826,1.1864,1.1879,1.1908,1.1926,1.1963,1.196,1.2012,1.1997,1.2017,1.2035,1.2036,1.2042,1.2037,1.2047,1.2071,1.2074,1.2046,1.2045,1.2045,0,1.1595,1.1653,1.169,1.1708,1.1758,1.1775,1.1797,1.1834,1.1857,1.1892,1.1907,1.1947,1.1969,1.2,1.2028,1.2023,1.2077,1.2077,1.2092,1.2091,1.2102,1.2101,1.2129,1.2116,1.2116,1.2116,1.2116,0,1.1622,1.1652,1.1692,1.1715,1.1749,1.1777,1.1811,1.1835,1.1867,1.1896,1.1917,1.1944,1.198,1.2012,1.2035,1.2074,1.2084,1.2098,1.2104,1.2096,1.2094,1.211,1.2108,1.2117,1.2117,1.2116,1.2116,0,1.1631,1.1659,1.1701,1.1744,1.1756,1.1779,1.1817,1.184,1.1864,1.19,1.191,1.1948,1.1986,1.2018,1.2069,1.2084,1.2125,1.2132,1.2111,1.2114,1.2127,1.2125,1.2166,1.2172,1.2155,1.2155,1.2155,0,1.1646,1.167,1.1714,1.1734,1.1755,1.1787,1.181,1.1838,1.1862,1.1905,1.1924,1.1963,1.1996,1.2056,1.2089,1.2128,1.2136,1.2147,1.2142,1.2133,1.2135,1.2133,1.2136,1.2148,1.2148,1.2148,1.2148,0,1.167,1.1682,1.1713,1.1749,1.1775,1.1805,1.1836,1.1851,1.1886,1.1911,1.1949,1.1974,1.2025,1.2064,1.2106,1.213,1.2145,1.2149,1.2154,1.2147,1.2133,1.214,1.2112,1.2148,1.2148,1.2148,1.2148,1.2148,1.1682,1.1703,1.1737,1.1771,1.1797,1.1825,1.1848,1.1874,1.1906,1.1948,1.1963,1.2002,1.2039,1.2097,1.2121,1.2153,1.2154,1.2163,1.2165,1.2166,1.2164,1.2128,1.2161,1.2161,1.2161,1.2161,1.2161,0,1.1706,1.1728,1.1759,1.18,1.1827,1.1836,1.1871,1.1893,1.1926,1.1958,1.1989,1.2033,1.2071,1.2106,1.2145,1.2164,1.2171,1.2173,1.2172,1.2177,1.2161,1.2152,1.2166,1.2166,1.2166,1.2166,1.2166,1.2166,1.1721,1.1757,1.1773,1.1822,1.1845,1.1882,1.19,1.1926,1.1952,1.1999,1.2029,1.2051,1.2085,1.2126,1.2161,1.2171,1.2184,1.2184,1.2195,1.2179,1.2178,1.2178,1.2169,1.2187,1.2187,1.2209,1.2209,1.2209]},{"header":{"parameterUnit":"m.s-1","parameterCategory":1,"la1":30.2991,"la2":30.254,"lo1":-89.0895,"lo2":-89.0444,"dy":0.0017,"dx":0.0017,"nx":28,"ny":28,"refTime":"2025-08-01T21:00:00:Z","depth":0,"parameterNumber":3,"parameterNumberName":"V-component_of_WINDS"},"data":[0,0,0,0,0,0,0,0,0,0,0,0,0,0,0,0,0,0,0,0,0,0,0,0,0,0,0,0,0,0,0,0,0,0,0,0,0,0,0,0,0,0,0,0,0,0,0,0,0,0,0,0,0,0,0,0,0,0,4.8512,4.8513,0,4.8521,4.8521,4.8521,4.8529,4.8529,4.8529,4.8529,4.8535,4.8535,4.8535,0,0,0,0,0,0,0,0,0,0,0,0,0,4.8501,4.8501,4.8512,4.8513,4.8513,4.8521,4.8521,4.8521,4.8529,4.8529,4.8529,4.8529,4.8535,4.8535,4.8535,0,0,0,0,0,0,0,0,0,0,0,0,0,4.8507,4.8501,4.8512,4.8518,4.8518,4.8521,4.8521,4.8521,4.8529,4.8529,4.8529,4.8529,4.8535,4.8535,4.8535,4.8533,0,0,4.8536,4.8536,0,0,0,0,0,0,0,0,4.8507,4.8508,4.8517,4.8517,4.8518,4.8524,4.8519,4.8525,4.8529,4.8525,4.8529,4.8529,4.8531,4.8532,4.8533,4.8533,4.8533,4.8536,4.8536,4.8536,4.8536,0,0,0,0,0,0,0,4.8506,4.8507,4.8516,4.8517,4.8518,4.8519,4.852,4.852,4.8527,4.8525,4.8526,4.8527,4.8531,4.8533,4.8533,4.8534,4.8536,4.8536,4.8536,4.8536,4.8533,4.8533,0,0,0,0,0,0,4.8505,4.8507,4.8516,4.8516,4.8513,4.8519,4.852,4.8522,4.8527,4.8528,4.8527,4.8527,4.8532,4.8533,4.8533,4.8531,4.8536,4.8536,4.8536,4.8533,4.8533,4.8533,0,0,0,0,0,0,4.8505,4.8506,4.8515,4.8512,4.8513,4.8519,4.8521,4.8522,4.8523,4.8528,4.8529,4.8527,4.8533,4.8533,4.8533,4.8532,4.8536,4.8536,4.8534,4.8533,4.8533,4.8527,0,0,0,0,0,0,4.8505,4.8506,4.8506,4.8512,4.8513,4.8516,4.8521,4.8522,4.8524,4.8524,4.8529,4.8529,4.8533,4.8533,4.8533,4.8532,4.8536,4.8534,4.8533,4.8533,4.8527,4.8527,4.8526,0,0,0,0,0,4.8504,4.8503,4.8505,4.8506,4.8513,4.8516,4.8516,4.8521,4.8524,4.8523,4.8526,4.8529,4.8532,4.8533,4.8533,4.8532,4.8534,4.8534,4.8533,4.8528,4.8527,4.8526,0,0,0,0,0,0,4.8495,4.8503,4.8507,4.8507,4.8511,4.8517,4.8516,4.852,4.8522,4.8522,4.8527,4.8528,4.8528,4.853,4.8531,4.853,4.8533,4.8533,4.8529,4.8528,4.8527,4.8527,4.8536,0,0,0,0,0,4.8493,4.8495,4.8502,4.8502,4.8504,4.851,4.8511,4.8515,4.8518,4.8519,4.8523,4.8525,4.8527,4.8528,4.8529,4.8528,4.8529,4.8527,4.8526,4.8526,4.8525,4.8525,4.8524,4.8532,4.8532,4.8532,0,0,4.8488,4.8494,4.8494,4.85,4.8503,4.8505,4.8511,4.8512,4.8513,4.8519,4.852,4.8523,4.8526,4.8526,4.8526,4.8527,4.8524,4.8525,4.8525,4.8525,4.8525,4.8524,4.8523,4.8532,4.8532,4.8532,0,0,4.8482,4.8486,4.8486,4.849,4.8495,4.85,4.85,4.8506,4.8508,4.8509,4.8514,4.8515,4.8518,4.852,4.8521,4.8517,4.852,4.8517,4.8513,4.8513,4.8513,4.8512,4.8511,4.851,4.8517,4.8517,4.8517,0,4.8475,4.8479,4.8486,4.8487,4.849,4.8497,4.8497,4.85,4.8505,4.8506,4.8508,4.8512,4.8515,4.8516,4.8515,4.8516,4.8516,4.8517,4.8512,4.8512,4.8512,4.851,4.851,4.8517,4.8517,4.8517,4.8517,0,4.8471,4.8473,4.8473,4.848,4.8482,4.8483,4.8489,4.8491,4.8495,4.8498,4.85,4.8503,4.8506,4.8507,4.851,4.8508,4.8509,4.8512,4.8515,4.851,4.8509,4.8509,4.8516,4.8516,4.8516,4.8517,0,0,4.8456,4.8468,4.8468,4.8471,4.8479,4.848,4.8482,4.8486,4.8487,4.8491,4.8492,4.8494,4.8497,4.8499,4.8503,4.8503,4.8499,4.8505,4.8506,4.8504,4.8498,4.8495,4.8495,4.8502,4.8501,4.8501,4.8497,0,4.8451,4.8455,4.8461,4.8463,4.8465,4.8473,4.8474,4.8478,4.8482,4.8485,4.8489,4.849,4.8494,4.8495,4.8496,4.85,4.8498,4.85,4.8502,4.8502,4.8501,4.8494,4.8491,4.8487,4.8497,4.8497,4.8497,0,4.8444,4.8449,4.8451,4.8459,4.846,4.8462,4.8466,4.8469,4.8474,4.8477,4.8479,4.8484,4.8485,4.8489,4.8491,4.8492,4.8493,4.8495,4.8495,4.8495,4.8499,4.8493,4.8486,4.8485,4.8496,4.8496,4.8496,0,4.8433,4.844,4.8443,4.8445,4.8455,4.8456,4.846,4.8465,4.8467,4.8471,4.8473,4.8476,4.8478,4.8481,4.8486,4.8488,4.8487,4.8491,4.8489,4.8489,4.8488,4.8488,4.8481,4.849,4.849,4.849,4.849,0,4.8426,4.8426,4.8438,4.844,4.8441,4.8449,4.845,4.8454,4.846,4.8462,4.8468,4.8469,4.8476,4.8479,4.8483,4.8484,4.8484,4.8486,4.8487,4.8486,4.8485,4.8486,4.8486,4.849,4.849,4.849,4.849,0,4.8413,4.8422,4.8425,4.8434,4.8437,4.8438,4.8445,4.8447,4.8452,4.8454,4.8455,4.8463,4.8466,4.8472,4.8476,4.8479,4.8479,4.8481,4.8478,4.8478,4.8476,4.8476,4.8469,4.8468,4.8477,4.8477,4.8477,0,4.8408,4.8409,4.8419,4.8422,4.8426,4.843,4.8433,4.8441,4.8444,4.8451,4.8451,4.8455,4.8459,4.8463,4.8469,4.8472,4.8474,4.8471,4.8474,4.8473,4.8474,4.8473,4.8474,4.847,4.847,4.847,4.847,0,4.8397,4.8401,4.8406,4.8412,4.8416,4.8421,4.8427,4.8428,4.8437,4.844,4.8444,4.8447,4.8453,4.8456,4.8461,4.8464,4.8468,4.8469,4.8469,4.8467,4.8465,4.8466,4.8475,4.8469,4.8469,4.8469,4.8469,4.8469,4.8387,4.8389,4.8398,4.8403,4.8408,4.8413,4.8416,4.8422,4.8426,4.8432,4.8436,4.844,4.8446,4.8453,4.8456,4.8459,4.846,4.846,4.846,4.846,4.8459,4.8465,4.8459,4.8459,4.8459,4.8459,4.8459,0,4.8377,4.8383,4.8388,4.8396,4.84,4.8406,4.8413,4.8415,4.8419,4.8425,4.8429,4.8434,4.8438,4.8444,4.8449,4.845,4.8452,4.8451,4.845,4.8451,4.8457,4.8457,4.8449,4.8449,4.8449,4.8449,4.8449,4.8449,4.8372,4.8375,4.8381,4.8387,4.8393,4.8398,4.8402,4.8407,4.8411,4.8417,4.8421,4.8426,4.8432,4.8437,4.8441,4.8443,4.8444,4.8442,4.8444,4.845,4.8451,4.8451,4.8451,4.8442,4.8442,4.8438,4.8438,4.8438]}]]